SR5MRF Weather Reports


time (UTC)temp
C
wind
direction
speed
KPH
gust
KPH
rain 1hr
cm
rain 24hr
cm
rain mn
cm
humidity
%
barometer
mb
20260508072835 10 315 0.0 0.0 0.00 0.00 0.00 76 1015.0
20260508072135 10 337 0.0 0.0 0.00 0.00 0.00 76 1014.8
20260508071836 10 315 0.0 0.0 0.00 0.00 0.00 76 1014.8
20260508071435 11 337 0.0 0.0 0.00 0.00 0.00 76 1014.6
20260508070837 10 337 0.0 0.0 0.00 0.00 0.00 76 1014.6
20260508070735 10 337 0.0 0.0 0.00 0.00 0.00 76 1014.5
20260508070035 10 337 0.0 0.0 0.00 0.00 0.00 76 1014.5
20260508065836 10 337 0.0 0.0 0.00 0.00 0.00 76 1014.5
20260508065335 10 337 0.0 0.0 0.00 0.00 0.00 76 1014.5
20260508064836 10 337 0.0 0.0 0.00 0.00 0.00 76 1014.5
20260508064635 10 337 0.0 0.0 0.00 0.00 0.00 76 1014.5
20260508063935 10 337 0.0 0.0 0.00 0.00 0.00 76 1014.5
20260508063836 10 337 0.0 0.0 0.00 0.00 0.00 76 1014.5
20260508063235 10 337 0.0 0.0 0.00 0.00 0.00 77 1014.5
20260508062836 10 337 0.0 0.0 0.00 0.00 0.00 77 1014.5
20260508062535 10 337 0.0 0.0 0.00 0.00 0.00 77 1014.5
20260508061835 10 337 0.0 0.0 0.00 0.00 0.00 77 1014.4
20260508061135 10 337 0.0 0.0 0.00 0.00 0.00 77 1014.4
20260508060435 10 337 0.0 0.0 0.00 0.00 0.00 77 1014.4
20260508055836 10 337 0.0 0.0 0.00 0.00 0.00 77 1014.4
20260508055735 10 337 0.0 0.0 0.00 0.00 0.00 77 1014.4
20260508055035 10 337 0.0 0.0 0.00 0.00 0.00 77 1014.2
20260508054836 10 337 0.0 0.0 0.00 0.00 0.00 76 1014.1
20260508054335 10 337 0.0 0.0 0.00 0.00 0.00 77 1014.2
20260508053836 10 337 0.0 0.0 0.00 0.00 0.00 76 1014.3
20260508053635 10 337 0.0 0.0 0.00 0.00 0.00 76 1014.2
20260508052935 10 337 0.0 0.0 0.00 0.00 0.00 77 1014.2
20260508052836 10 337 0.0 0.0 0.00 0.00 0.00 77 1014.0
20260508052235 10 337 0.0 0.0 0.00 0.00 0.00 77 1014.1
20260508051535 10 337 0.0 0.0 0.00 0.00 0.00 77 1014.1
20260508050836 10 337 0.0 0.0 0.00 0.00 0.00 76 1013.9
20260508050136 10 337 0.0 0.0 0.00 0.00 0.00 76 1014.0
20260508045836 10 337 0.0 0.0 0.00 0.00 0.00 76 1014.1
20260508045435 10 337 0.0 0.0 0.00 0.00 0.00 76 1013.9
20260508044836 10 337 0.0 0.0 0.00 0.00 0.00 76 1013.9
20260508044736 10 337 0.0 0.0 0.00 0.00 0.00 76 1014.0
20260508044036 10 337 0.0 0.0 0.00 0.00 0.00 75 1014.0
20260508043836 10 337 0.0 0.0 0.00 0.00 0.00 75 1014.0
20260508043336 10 337 0.0 0.0 0.00 0.00 0.00 75 1014.0
20260508042836 10 337 0.0 0.0 0.00 0.00 0.00 75 1013.9
20260508042636 10 315 0.0 0.0 0.00 0.00 0.00 75 1013.9
20260508041936 10 202 0.0 0.0 0.00 0.00 0.00 75 1013.8
20260508041836 10 202 0.0 0.0 0.00 0.00 0.00 75 1013.6
20260508041236 10 337 0.0 0.0 0.00 0.00 0.00 75 1013.8
20260508040536 10 337 0.0 0.0 0.00 0.00 0.00 75 1013.6
20260508035836 10 337 0.0 0.0 0.00 0.00 0.00 75 1013.9
20260508035136 10 337 0.0 0.0 0.00 0.00 0.00 75 1013.7
20260508034436 10 337 0.0 0.0 0.00 0.00 0.00 75 1013.9
20260508033836 10 337 0.0 0.0 0.00 0.00 0.00 75 1013.8
20260508033736 10 337 0.0 0.0 0.00 0.00 0.00 75 1013.9
20260508033036 10 337 0.0 0.0 0.00 0.00 0.00 75 1013.7
20260508032837 10 337 0.0 0.0 0.00 0.00 0.00 75 1013.7
20260508032336 10 337 0.0 0.0 0.00 0.00 0.00 75 1013.8
20260508031837 10 337 0.0 0.0 0.00 0.00 0.00 75 1013.9
20260508031636 10 337 0.0 0.0 0.00 0.00 0.00 75 1013.8
20260508030936 10 337 0.0 0.0 0.00 0.00 0.00 75 1013.7
20260508030837 10 315 0.0 0.0 0.00 0.00 0.00 75 1013.7
20260508030236 10 202 0.0 0.0 0.00 0.00 0.00 74 1013.7
20260508025837 10 337 0.0 0.0 0.00 0.00 0.00 74 1013.6
20260508025536 10 315 0.0 0.0 0.00 0.00 0.00 74 1013.6
20260508024836 10 337 0.0 0.0 0.00 0.00 0.00 74 1013.4
20260508024136 10 337 0.0 0.0 0.00 0.00 0.00 74 1013.7
20260508023436 10 337 0.0 0.0 0.00 0.00 0.00 74 1013.5
20260508022736 10 337 0.0 0.0 0.00 0.00 0.00 74 1013.5
20260508022036 10 337 0.0 0.0 0.00 0.00 0.00 73 1013.4
20260508021837 10 337 0.0 0.0 0.00 0.00 0.00 73 1013.4
20260508021336 10 337 0.0 0.0 0.00 0.00 0.00 73 1013.7
20260508020837 10 337 0.0 0.0 0.00 0.00 0.00 73 1013.5
20260508020636 10 337 0.0 0.0 0.00 0.00 0.00 73 1013.7
20260508015936 10 337 0.0 0.0 0.00 0.00 0.00 73 1013.5
20260508015837 10 337 0.0 0.0 0.00 0.00 0.00 73 1013.6
20260508015236 11 315 0.0 0.0 0.00 0.00 0.00 73 1013.5
20260508014837 11 337 0.0 0.0 0.00 0.00 0.00 73 1013.4
20260508014536 11 337 0.0 0.0 0.00 0.00 0.00 73 1013.5
20260508013836 11 337 0.0 0.0 0.00 0.00 0.00 73 1013.4
20260508013136 11 337 0.0 0.0 0.00 0.00 0.00 73 1013.5
20260508012837 11 337 0.0 0.0 0.00 0.00 0.00 73 1013.4
20260508012436 11 0 0.0 0.0 0.00 0.00 0.00 73 1013.3
20260508011837 11 337 0.0 0.0 0.00 0.00 0.00 73 1013.3
20260508011736 11 337 0.0 0.0 0.00 0.00 0.00 73 1013.3
20260508011036 11 337 0.0 0.0 0.00 0.00 0.00 73 1013.4
20260508010911 11 157 0.0 0.0 0.00 0.00 0.00 72 1013.5
20260508010336 11 337 0.0 0.0 0.00 0.00 0.00 73 1013.6
20260508005837 11 337 0.0 0.0 0.00 0.00 0.00 72 1013.2
20260508005636 11 337 0.0 0.0 0.00 0.00 0.00 72 1013.3
20260508004936 11 0 0.0 0.0 0.00 0.00 0.00 73 1013.4
20260508004837 11 0 0.0 0.0 0.00 0.00 0.00 73 1013.4
20260508004236 11 337 0.0 0.0 0.00 0.00 0.00 72 1013.4
20260508003837 11 157 0.0 0.0 0.00 0.00 0.00 72 1013.3
20260508003536 11 337 0.0 0.0 0.00 0.00 0.00 72 1013.3
20260508002836 11 337 0.0 0.0 0.00 0.00 0.00 72 1013.4
20260508002136 11 337 0.0 0.0 0.00 0.00 0.00 72 1013.3
20260508001837 11 337 0.0 0.0 0.00 0.00 0.00 72 1013.2
20260508001436 11 337 0.0 0.0 0.00 0.00 0.00 72 1013.4
20260508000837 11 337 0.0 0.0 0.00 0.00 0.00 72 1013.4
20260508000736 11 337 0.0 0.0 0.00 0.00 0.00 72 1013.3
20260508000036 11 337 0.0 0.0 0.00 0.00 0.00 72 1013.2
20260507235837 11 337 0.0 0.0 0.00 0.00 0.00 72 1013.1
20260507235336 11 337 0.0 0.0 0.00 0.00 0.00 72 1013.1
20260507234636 11 0 0.0 0.0 0.00 0.00 0.00 72 1013.3
20260507233936 11 337 0.0 0.0 0.00 0.00 0.00 71 1013.1
20260507233837 11 247 0.0 0.0 0.00 0.00 0.00 71 1013.4
20260507233236 11 157 0.0 0.0 0.00 0.00 0.00 71 1013.2
20260507232837 11 337 0.0 0.0 0.00 0.00 0.00 71 1013.2
20260507232536 11 337 0.0 0.0 0.00 0.00 0.00 71 1013.2
20260507231836 11 337 0.0 0.0 0.00 0.00 0.00 71 1013.1
20260507231136 11 90 0.0 0.0 0.00 0.00 0.00 71 1013.2
20260507230837 11 0 0.0 0.0 0.00 0.00 0.00 71 1013.2
20260507230436 11 0 0.0 0.0 0.00 0.00 0.00 71 1013.2
20260507225837 12 337 0.0 0.0 0.00 0.00 0.00 71 1013.2
20260507225736 12 337 0.0 0.0 0.00 0.00 0.00 71 1013.1
20260507225036 12 180 0.0 0.0 0.00 0.00 0.00 71 1013.1
20260507224336 12 337 0.0 0.0 0.00 0.00 0.00 71 1013.1
20260507223837 12 0 0.0 0.0 0.00 0.00 0.00 71 1013.1
20260507223636 12 337 0.0 0.0 0.00 0.00 0.00 71 1013.1
20260507222936 12 337 0.0 0.0 0.00 0.00 0.00 71 1012.9
20260507222837 12 315 0.0 0.0 0.00 0.00 0.00 71 1013.0
20260507222236 12 247 0.0 0.0 0.00 0.00 0.00 71 1012.9
20260507221837 12 337 0.0 0.0 0.00 0.00 0.00 71 1013.0
20260507221536 12 315 0.0 0.0 0.00 0.00 0.00 71 1012.9
20260507220836 12 0 0.0 0.0 0.00 0.00 0.00 71 1012.8
20260507220136 12 337 0.0 0.0 0.00 0.00 0.00 71 1012.6
20260507215837 12 337 0.0 0.0 0.00 0.00 0.00 71 1012.6
20260507215436 12 157 0.0 0.0 0.00 0.00 0.00 71 1012.6
20260507214837 12 0 0.0 0.0 0.00 0.00 0.00 71 1012.7
20260507214736 12 315 0.0 0.0 0.00 0.00 0.00 71 1012.6
20260507214036 12 337 0.0 0.0 0.00 0.00 0.00 71 1012.6
20260507213837 12 315 0.0 0.0 0.00 0.00 0.00 70 1012.5
20260507213336 12 315 0.0 0.0 0.00 0.00 0.00 70 1012.5
20260507212837 12 337 0.0 0.0 0.00 0.00 0.00 70 1012.4
20260507212636 12 337 0.0 0.0 0.00 0.00 0.00 70 1012.5
20260507211936 12 337 0.0 0.0 0.00 0.00 0.00 70 1012.5
20260507211837 12 337 0.0 0.0 0.00 0.00 0.00 70 1012.4
20260507211236 12 337 0.0 0.0 0.00 0.00 0.00 70 1012.4
20260507210837 12 0 0.0 0.0 0.00 0.00 0.00 70 1012.5
20260507210536 12 337 0.0 0.0 0.00 0.00 0.00 70 1012.6
20260507205836 12 337 0.0 0.0 0.00 0.00 0.00 70 1012.5
20260507205136 12 337 0.0 0.0 0.00 0.00 0.00 70 1012.6
20260507204436 12 337 0.0 0.0 0.00 0.00 0.00 70 1012.4
20260507203837 12 337 0.0 0.0 0.00 0.00 0.00 70 1012.3
20260507203736 12 337 0.0 0.0 0.00 0.00 0.00 70 1012.4
20260507203036 12 337 0.0 0.0 0.00 0.00 0.00 70 1012.3
20260507202837 12 337 0.0 0.0 0.00 0.00 0.00 69 1012.5
20260507202336 12 337 0.0 0.0 0.00 0.00 0.00 69 1012.5
20260507201837 12 337 0.0 0.0 0.00 0.00 0.00 69 1012.6
20260507201636 12 315 0.0 0.0 0.00 0.00 0.00 69 1012.6
20260507200936 12 0 0.0 0.0 0.00 0.00 0.00 69 1012.3
20260507200837 12 337 0.0 0.0 0.00 0.00 0.00 69 1012.4
20260507200236 12 337 0.0 0.0 0.00 0.00 0.00 69 1012.2
20260507195837 12 337 0.0 0.0 0.00 0.00 0.00 70 1012.3
20260507195536 12 337 0.0 0.0 0.00 0.00 0.00 70 1012.4
20260507194836 12 337 0.0 0.0 0.00 0.00 0.00 70 1012.3
20260507194136 12 337 0.0 0.0 0.00 0.00 0.00 70 1012.2
20260507193837 12 337 0.0 0.0 0.00 0.00 0.00 70 1012.2
20260507193436 12 180 0.0 0.0 0.00 0.00 0.00 70 1012.1
20260507192837 12 337 0.0 0.0 0.00 0.00 0.00 70 1012.3
20260507192736 12 337 0.0 0.0 0.00 0.00 0.00 70 1012.2
20260507192036 13 337 0.0 0.0 0.00 0.00 0.00 70 1011.9
20260507191837 13 157 0.0 0.0 0.00 0.00 0.00 70 1011.8
20260507191336 13 337 0.0 0.0 0.00 0.00 0.00 69 1012.0
20260507190837 13 337 0.0 0.0 0.00 0.00 0.00 69 1012.0
20260507190636 13 337 0.0 0.0 0.00 0.00 0.00 69 1012.0
20260507185936 13 337 0.0 0.0 0.00 0.00 0.00 69 1012.2
20260507185837 13 337 0.0 0.0 0.00 0.00 0.00 69 1012.1
20260507185236 13 337 0.0 0.0 0.00 0.00 0.00 69 1012.0
20260507184837 13 337 0.0 0.0 0.00 0.00 0.00 69 1012.1
20260507184536 13 337 0.0 0.0 0.00 0.00 0.00 69 1011.8
20260507183836 13 337 0.0 0.0 0.00 0.00 0.00 69 1011.7
20260507183136 13 337 0.0 0.0 0.00 0.00 0.00 69 1011.7
20260507182837 13 337 0.0 0.0 0.00 0.00 0.00 69 1011.6
20260507182436 13 337 0.0 0.0 0.00 0.00 0.00 69 1011.6
20260507181837 13 337 0.0 0.0 0.00 0.00 0.00 69 1011.4
20260507181736 13 337 0.0 0.0 0.00 0.00 0.00 69 1011.4
20260507181036 13 337 0.0 0.0 0.00 0.00 0.00 69 1011.4
20260507180837 13 337 0.0 0.0 0.00 0.00 0.00 69 1011.4
20260507180336 13 315 0.0 0.0 0.00 0.00 0.00 69 1011.4
20260507175837 13 337 0.0 0.0 0.00 0.00 0.00 69 1011.3
20260507175636 13 337 0.0 0.0 0.00 0.00 0.00 69 1011.3
20260507174936 13 337 0.0 0.0 0.00 0.00 0.00 69 1011.2
20260507174837 13 337 0.0 0.0 0.00 0.00 0.00 69 1011.1
20260507174236 13 337 0.0 0.0 0.00 0.00 0.00 69 1010.9
20260507173837 13 315 0.0 0.0 0.00 0.00 0.00 69 1010.8
20260507173536 13 337 0.0 0.0 0.00 0.00 0.00 69 1010.9
20260507172836 13 337 0.0 0.0 0.00 0.00 0.00 68 1010.6
20260507172136 14 337 0.0 0.0 0.00 0.00 0.00 68 1010.3
20260507171837 14 337 0.0 0.0 0.00 0.00 0.00 68 1010.5
20260507171436 14 337 0.0 0.0 0.00 0.00 0.00 68 1010.4
20260507170736 14 315 0.0 0.0 0.00 0.00 0.00 68 1010.4
20260507170036 14 337 0.0 0.0 0.00 0.00 0.00 68 1010.2
20260507165837 14 337 0.0 0.0 0.00 0.00 0.00 68 1010.0
20260507165336 14 337 0.0 0.0 0.00 0.00 0.00 68 1009.9
20260507164837 14 337 0.0 0.0 0.00 0.00 0.00 68 1010.0
20260507164636 14 337 0.0 0.0 0.00 0.00 0.00 68 1009.9
20260507163937 14 337 0.0 0.0 0.00 0.00 0.00 68 1010.1
20260507163837 14 337 0.0 0.0 0.00 0.00 0.00 67 1010.0
20260507163236 14 337 0.0 0.0 0.00 0.00 0.00 67 1010.1
20260507162837 15 337 0.0 0.0 0.00 0.00 0.00 67 1010.2
20260507162537 15 337 0.0 0.0 0.00 0.00 0.00 67 1010.2
20260507161837 15 315 0.0 0.0 0.00 0.00 0.00 67 1010.0
20260507161137 15 337 0.0 0.0 0.00 0.00 0.00 67 1010.2
20260507160837 15 337 0.0 0.0 0.00 0.00 0.00 67 1010.3
20260507160437 15 337 0.0 0.0 0.00 0.00 0.00 66 1010.3
20260507155837 15 337 0.0 0.0 0.00 0.00 0.00 66 1010.3
20260507155737 15 337 0.0 0.0 0.00 0.00 0.00 66 1010.3
20260507155037 15 337 0.0 0.0 0.00 0.00 0.00 66 1010.6
20260507154837 15 337 0.0 0.0 0.00 0.00 0.00 66 1010.5
20260507154337 15 337 0.0 0.0 0.00 0.00 0.00 66 1010.3
20260507153637 15 315 0.0 0.0 0.00 0.00 0.00 66 1010.4
20260507152937 15 337 0.0 0.0 0.00 0.00 0.00 66 1010.3
20260507152846 15 337 0.0 0.0 0.00 0.00 0.00 66 1010.3
20260507152237 15 337 0.0 0.0 0.00 0.00 0.00 66 1010.3
20260507151837 15 337 0.0 0.0 0.00 0.00 0.00 66 1010.2
20260507151537 15 337 0.0 0.0 0.00 0.00 0.00 66 1010.3
20260507150837 16 337 0.0 0.0 0.00 0.00 0.00 66 1010.3
20260507150137 16 337 0.0 0.0 0.00 0.00 0.00 66 1010.4
20260507145838 16 315 0.0 0.0 0.00 0.00 0.00 66 1010.3
20260507145437 16 315 0.0 0.0 0.00 0.00 0.00 66 1010.2
20260507144838 16 337 0.0 0.0 0.00 0.00 0.00 66 1010.2
20260507144737 16 337 0.0 0.0 0.00 0.00 0.00 66 1010.1
20260507144037 16 337 0.0 0.0 0.00 0.00 0.00 66 1010.1
20260507143838 16 337 0.0 0.0 0.00 0.00 0.00 66 1010.0
20260507143337 16 337 0.0 0.0 0.00 0.00 0.00 66 1009.9
20260507142838 16 337 0.0 0.0 0.00 0.00 0.00 66 1010.0
20260507142637 16 337 0.0 0.0 0.00 0.00 0.00 66 1009.9
20260507141937 16 337 0.0 0.0 0.00 0.00 0.00 66 1009.7
20260507141237 16 0 0.0 0.0 0.00 0.00 0.00 66 1009.7
20260507140838 16 337 0.0 0.0 0.00 0.00 0.00 66 1009.7
20260507140537 16 337 0.0 0.0 0.00 0.00 0.00 66 1009.7
20260507135837 16 337 0.0 0.0 0.00 0.00 0.00 66 1009.7
20260507135137 16 315 0.0 0.0 0.00 0.00 0.00 66 1009.6
20260507134437 16 337 0.0 0.0 0.00 0.00 0.00 66 1009.8
20260507133838 16 337 0.0 0.0 0.00 0.00 0.00 66 1009.8
20260507133737 16 315 0.0 0.0 0.00 0.00 0.00 66 1009.8
20260507133037 16 337 0.0 0.0 0.00 0.00 0.00 66 1009.7
20260507132838 16 0 0.0 0.0 0.00 0.00 0.00 66 1009.7
20260507132337 16 337 0.0 0.0 0.00 0.00 0.00 66 1009.7
20260507131838 16 337 0.0 0.0 0.00 0.00 0.00 66 1009.6
20260507131637 16 315 0.0 0.0 0.00 0.00 0.00 66 1009.6
20260507130937 17 0 0.0 0.0 0.00 0.00 0.00 66 1009.6
20260507130838 17 0 0.0 0.0 0.00 0.00 0.00 66 1009.6
20260507130237 17 337 0.0 0.0 0.00 0.00 0.00 66 1009.7
20260507125913 17 337 0.0 0.0 0.00 0.00 0.00 66 1009.7
20260507125838 17 337 0.0 0.0 0.00 0.00 0.00 66 1009.7
20260507125537 17 337 0.0 0.0 0.00 0.00 0.00 66 1009.5
20260507124837 17 337 0.0 0.0 0.00 0.00 0.00 66 1009.7
20260507124137 17 337 0.0 0.0 0.00 0.00 0.00 66 1009.7
20260507123838 17 315 0.0 0.0 0.00 0.00 0.00 66 1009.6
20260507123437 17 157 0.0 0.0 0.00 0.00 0.00 66 1009.6
20260507122838 17 337 0.0 0.0 0.00 0.00 0.00 67 1009.5
20260507122737 17 337 0.0 0.0 0.00 0.00 0.00 67 1009.4
20260507122037 17 337 0.0 0.0 0.00 0.00 0.00 67 1009.5
20260507121838 17 337 0.0 0.0 0.00 0.00 0.00 67 1009.6
20260507121337 17 337 0.0 0.0 0.00 0.00 0.00 67 1009.4
20260507120838 17 337 0.0 0.0 0.00 0.00 0.00 68 1009.4
20260507120637 17 337 0.0 0.0 0.00 0.00 0.00 68 1009.6
20260507115937 16 315 0.0 0.0 0.00 0.00 0.00 69 1009.4
20260507115838 16 337 0.0 0.0 0.00 0.00 0.00 69 1009.5
20260507115237 16 337 0.0 0.0 0.00 0.00 0.00 69 1009.5
20260507114838 16 337 0.0 0.0 0.00 0.00 0.00 69 1009.5
20260507114537 16 337 0.0 0.0 0.00 0.00 0.00 71 1009.4
20260507113837 16 337 0.0 0.0 0.00 0.00 0.00 71 1009.3
20260507113137 15 337 0.0 0.0 0.00 0.00 0.00 71 1009.3
20260507112838 15 337 0.0 0.0 0.00 0.00 0.00 70 1009.3
20260507112437 15 337 0.0 0.0 0.00 0.00 0.00 70 1009.3
20260507111838 15 337 0.0 0.0 0.00 0.00 0.00 70 1009.2
20260507111737 15 337 0.0 0.0 0.00 0.00 0.00 70 1009.3
20260507111037 15 337 0.0 0.0 0.00 0.00 0.00 70 1009.1
20260507110838 15 337 0.0 0.0 0.00 0.00 0.00 70 1009.3
20260507110337 15 337 0.0 0.0 0.00 0.00 0.00 70 1009.2
20260507105838 15 337 0.0 0.0 0.00 0.00 0.00 70 1009.0
20260507105637 15 337 0.0 0.0 0.00 0.00 0.00 70 1009.1
20260507104937 15 337 0.0 0.0 0.00 0.00 0.00 70 1009.1
20260507104838 15 337 0.0 0.0 0.00 0.00 0.00 70 1009.2
20260507104237 15 337 0.0 0.0 0.00 0.00 0.00 70 1009.1
20260507103838 15 337 0.0 0.0 0.00 0.00 0.00 69 1008.9
20260507103537 15 337 0.0 0.0 0.00 0.00 0.00 69 1009.1
20260507102837 16 315 0.0 0.0 0.00 0.00 0.00 69 1008.9
20260507102137 16 337 0.0 0.0 0.00 0.00 0.00 68 1008.9
20260507101437 16 337 0.0 0.0 0.00 0.00 0.00 68 1008.8
20260507100838 16 315 0.0 0.0 0.00 0.00 0.00 67 1008.6
20260507100737 16 337 0.0 0.0 0.00 0.00 0.00 67 1008.7
20260507100037 16 315 0.0 0.0 0.00 0.00 0.00 67 1008.6
20260507095838 17 292 0.0 0.0 0.00 0.00 0.00 67 1008.5
20260507095337 17 337 0.0 0.0 0.00 0.00 0.00 66 1008.5
20260507094838 17 337 0.0 0.0 0.00 0.00 0.00 66 1008.3
20260507094637 17 337 0.0 0.0 0.00 0.00 0.00 66 1008.2
20260507093937 17 315 0.0 0.0 0.00 0.00 0.00 65 1008.2
20260507093838 17 315 0.0 0.0 0.00 0.00 0.00 65 1008.3
20260507093237 18 337 0.0 0.0 0.00 0.00 0.00 65 1008.2
20260507092838 18 337 0.0 0.0 0.00 0.00 0.00 65 1008.0
20260507092537 18 0 0.0 0.0 0.00 0.00 0.00 65 1008.0
20260507091837 18 315 0.0 0.0 0.00 0.00 0.00 65 1007.9
20260507091137 18 337 0.0 0.0 0.00 0.00 0.00 66 1007.8
20260507090838 18 337 0.0 0.0 0.00 0.00 0.00 66 1007.7
20260507090437 18 337 0.0 0.0 0.00 0.00 0.00 66 1007.8
20260507085838 18 315 0.0 0.0 0.00 0.00 0.00 66 1007.8
20260507085737 18 315 0.0 0.0 0.00 0.00 0.00 66 1007.8
20260507085037 18 315 0.0 0.0 0.00 0.00 0.00 65 1007.5
20260507084838 18 315 0.0 0.0 0.00 0.00 0.00 65 1007.6
20260507084337 18 337 0.0 0.0 0.00 0.00 0.00 66 1007.5
20260507083637 18 337 0.0 0.0 0.00 0.00 0.00 67 1007.3
20260507082937 18 337 0.0 0.0 0.00 0.00 0.00 68 1007.3
20260507082237 17 337 0.0 0.0 0.00 0.00 0.00 67 1007.2
20260507081537 18 337 0.0 0.0 0.00 0.00 0.00 66 1007.0
20260507080837 18 337 0.0 0.0 0.00 0.00 0.00 66 1006.9
20260507080137 18 337 0.0 0.0 0.00 0.00 0.00 66 1007.1
20260507075838 18 337 0.0 0.0 0.00 0.00 0.00 66 1007.0
20260507075437 18 337 0.0 0.0 0.00 0.00 0.00 65 1006.9
20260507074737 18 337 0.0 0.0 0.00 0.00 0.00 65 1006.8
20260507074037 18 315 0.0 0.0 0.00 0.00 0.00 66 1006.8
20260507073838 18 337 0.0 0.0 0.00 0.00 0.00 66 1006.7